Tracking 30102 objects as of 13-Dec-2024
HD Live streaming from Space Station
objects crossing your sky now

STARLINK-5514

Track STARLINK-5514 now!
10-day predictions
STARLINK-5514 is classified as:


NORAD ID: 57248
Int'l Code: 2023-094AG
Perigee: 565.3 km
Apogee: 567.2 km
Inclination: 43.0 °
Period: 95.8 minutes
Semi major axis: 6937 km
RCS: Unknown
Launch date: July 7, 2023
Source: United States (US)
Launch site: AIR FORCE WESTERN TEST RANGE (AFWTR)
Your satellite tracking list
Your tracking list is empty




NASA's NSSDC Master Catalog

Two Line Element Set (TLE):
1 57248U 23094AG  24347.61943603  .00000806  00000-0  74736-4 0  9991
2 57248  43.0058 314.0256 0001350 267.2262  92.8426 15.02533099 79447
Source of the keplerian elements: AFSPC